Weather in Dongying

China     37°28′39″N   118°33′15″E
temp.,
°C
wind,
m/s
gust,
m/s
humid.,
%
clouds,
%
prec.,
mm/h
press.,
hPa
HPBL,
m
11 may, tue
tue1123:00+14ese477321 0.0 1013330
02:00+14e3569100 0.0 1012228
05:00+13ene2476100 0.0 1013175
08:00+16ese356158 0.0 1013566
11:00+20ese454180 0.0 1012890
14:00+22ese443899 0.0 1010944
17:00+22ese4441100 0.0 1009798
20:00+18ese3552100 0.0 1009184
12 may, wed
wed1223:00+17se376983 0.0 1009213
02:00+16se378456 0.0 1009196
05:00+15se249185 0.0 1009109
08:00+19se2273100 0.0 1010298
11:00+24ese1151100 0.0 1010792
14:00+27ese443971 0.0 10081321
17:00+25ese56530 0.0 1008638
20:00+21ese59680 0.0 1008392
13 may, thu
thu1323:00+20se59810 0.0 1010369
02:00+18sse511860 0.0 1009340
05:00+17sse5108817 0.0 1009316
08:00+21sse58703 0.0 1010467
11:00+26sse44510 0.0 1008985
14:00+29se44415 0.0 10061697
17:00+29se66440 0.0 10051481
20:00+24se711600 0.0 1006645
14 may, fri
fri1423:00+21sse713720 0.0 1008506
02:00+19sse613810 0.0 1007417
05:00+18sse512870 0.0 1006391
08:00+21sse6107373 0.0 1007554
11:00+25sse7857100 0.0 1006989
14:00+27sse6747100 0.0 10031268
17:00+26sse5655100 0.0 10021065
20:00+23se5967100 0.0 1002496
15 may, sat
sat1523:00+21se5880100 0.0 1003339
02:00+20se3487100 0.0 1002278
05:00+20ne2388100 0.0 1003171
08:00+20ne6984100 0.0 1005586
11:00+17ne91681100 0.0 1008691
14:00+17ne81653100 0.0 1009905
17:00+17ne71540100 0.0 1010795
20:00+12nne71474100 5.3 1009885